RH
21 22 22 23 24 26 29 31 32 33 32 31 30 28 27 26 25 25 24 23 24 24 23 24 24 23 24 25 26 26 27 27 28 31 33 33 33 33 34 35 38 41
20 21 22 23 25 26 28 29 30 31 32 31 29 28 27 29 30 30 30 29 30 30 28 27 26 25 26 27 28 29 29 30 32 35 38 38 37 37 38 40 42 44
21 22 23 24 24 24 24 25 27 28 29 30 29 27 26 28 30 32 32 33 34 34 33 31 29 29 30 30 32 33 32 34 37 40 42 42 40 40 41 42 43 44
22 23 24 24 23 23 23 24 25 27 28 29 29 28 26 27 29 31 32 34 35 35 35 35 33 33 34 34 35 36 36 38 40 43 44 43 41 40 41 42 43 44
23 24 24 24 23 23 24 24 24 25 26 27 29 29 28 27 28 29 31 32 33 35 36 37 37 37 38 38 39 40 41 42 43 44 45 44 43 42 42 43 44 45
22 23 23 23 23 23 23 23 23 24 25 27 29 31 30 28 28 27 28 29 31 34 36 37 39 40 41 42 43 43 44 46 47 47 47 46 46 45 45 45 46 47
22 21 21 21 21 21 21 21 22 23 24 27 30 31 32 30 28 27 27 28 30 31 33 36 38 40 42 43 44 45 45 46 47 48 47 47 46 46 46 45 45 45
21 20 19 19 18 18 18 19 21 23 24 27 29 31 32 32 30 28 29 29 30 32 33 35 37 39 41 43 44 43 43 44 44 45 45 45 44 44 42 40 40 41
18 17 16 15 15 16 17 18 20 22 24 25 27 30 33 33 32 31 30 31 32 33 34 36 37 40 42 43 42 42 42 42 43 42 41 41 41 40 40 41 41 41
15 14 14 13 14 15 16 18 20 22 23 24 26 30 33 34 34 34 33 34 35 35 37 38 40 42 43 43 43 43 43 42 41 39 37 36 36 36 38 39 38 38
13 13 13 13 13 14 16 18 20 22 23 24 26 28 31 33 35 35 36 36 36 37 38 39 40 40 41 41 41 41 41 39 37 37 36 35 34 34 34 33 35 35
13 12 12 13 14 15 16 18 20 21 22 23 25 26 28 30 31 32 33 33 33 34 33 33 34 35 36 37 37 37 37 35 35 35 33 30 29 30 30 32 35 36
13 12 12 12 13 14 15 16 17 18 20 21 22 24 24 24 25 26 27 28 29 28 28 28 29 31 33 34 34 34 33 32 33 32 29 27 28 29 31 33 35 37
12 13 13 13 13 13 13 15 15 16 18 19 20 21 21 21 21 22 24 25 25 24 24 25 26 29 31 32 32 32 32 30 29 29 27 27 28 29 29 31 33 36
13 13 13 13 13 14 14 14 15 16 17 18 19 19 20 20 20 21 22 22 21 21 21 21 24 27 29 31 32 32 30 27 26 27 27 27 27 28 30 32 33 36
14 14 14 14 14 14 15 15 15 16 17 18 19 19 20 20 19 19 20 19 18 18 17 18 21 25 30 31 30 28 27 26 26 28 28 28 29 31 33 34 35 38
14 15 15 15 15 15 15 16 16 17 18 18 19 19 19 19 18 19 19 18 17 16 15 17 20 24 28 27 24 26 30 31 30 29 27 28 30 31 32 32 34 38
16 16 16 16 16 16 16 17 17 18 18 18 18 19 19 19 19 19 18 18 17 15 14 15 18 20 20 19 19 24 31 32 32 31 29 30 33 32 30 29 32 37
18 18 18 18 17 17 17 18 18 18 18 18 18 19 19 20 19 19 19 18 16 15 13 13 14 14 15 16 19 24 28 28 28 30 30 32 34 32 29 29 33 37
21 20 20 19 19 19 19 19 19 18 18 18 18 19 19 19 19 19 18 17 16 14 13 12 13 14 15 16 20 25 30 29 26 27 29 32 34 34 33 33 33 35
24 23 23 21 20 20 20 19 19 19 19 19 18 19 19 19 20 19 19 18 16 14 14 13 13 15 16 16 17 22 29 32 28 25 27 32 35 36 37 36 34 34
27 27 26 25 24 22 21 20 20 19 19 20 19 20 20 20 20 20 19 18 17 15 14 14 14 15 15 15 15 17 22 28 29 26 27 32 36 38 38 36 34 33
29 30 29 28 27 25 23 22 21 21 21 21 21 21 21 20 20 20 19 18 17 16 15 15 15 15 14 13 14 15 16 21 24 24 25 31 37 39 37 35 33 34
32 31 31 31 30 29 27 25 23 23 23 23 24 23 22 22 21 20 20 18 17 16 16 16 15 15 15 13 13 14 16 18 21 22 25 32 38 38 36 34 36 37
33 32 32 33 33 31 30 29 27 27 26 25 25 25 23 23 22 21 20 18 17 17 16 16 15 15 15 14 14 15 16 19 22 24 27 34 38 38 37 37 39 40
32 33 34 35 34 32 31 30 30 30 29 28 27 26 24 23 23 23 22 19 18 18 17 16 16 16 16 16 17 19 19 20 23 25 29 35 38 39 40 40 40 40